Location: �quirre
(50.4736°N, 2.2351°E)
Time: 06:31:21
(UTC+00:00)

In-Cosmos 22 - Pass Details

Date: 07 August 2020
Orbit: 784 x 877 km, 81.2° (Epoch: 23 September)

Event Time Altitude Azimuth Distance (km) Brightness Sun altitude
Rises 01:09:08 0° 346° (NNW) 3,448 8.3 -21.3°
Reaches altitude 10° 01:11:36 10° 346° (NNW) 2,495 7.4 -21.2°
Maximum altitude 01:17:15 80° 260° (W) 857 4.1 -20.9°
Enters shadow 01:19:18 40° 180° (S) 1,203 4.5 -20.8°
